This is the latest recevied weather packets stored in our database for station/object W2IRT. If no packets are shown the sender has not sent any weather packets the latest 10 day(s).
| Time | Temp. | Humidity | Pressure | Rain* | Wind** | Luminosity | Snow |
|---|---|---|---|---|---|---|---|
| 1788557715 | 28.33° C | 56% | 1010 hPa | 0 mm | - | - | - |
| 1788557415 | 28.33° C | 55% | 1009.9 hPa | 0 mm | - | - | - |
| 1788557115 | 28.33° C | 56% | 1009.8 hPa | 0 mm | - | - | - |
| 1788556816 | 28.33° C | 53% | 1009.8 hPa | 0 mm | - | - | - |
| 1788556517 | 28.33° C | 53% | 1009.8 hPa | 0 mm | - | - | - |
| 1788556215 | 28.33° C | 54% | 1009.7 hPa | 0 mm | - | - | - |
| 1788555915 | 28.33° C | 55% | 1009.7 hPa | 0 mm | - | - | - |
| 1788555615 | 28.33° C | 55% | 1009.8 hPa | 0 mm | - | - | - |
| 1788555315 | 28.33° C | 55% | 1009.9 hPa | 0 mm | - | - | - |
| 1788555015 | 28.33° C | 54% | 1010.1 hPa | 0 mm | - | - | - |
| 1788554715 | 28.33° C | 55% | 1010.1 hPa | 0 mm | - | - | - |
| 1788554415 | 28.33° C | 57% | 1010.1 hPa | 0 mm | - | - | - |
| 1788554115 | 28.33° C | 55% | 1010.2 hPa | 0 mm | - | - | - |
| 1788553815 | 28.33° C | 56% | 1010.3 hPa | 0 mm | - | - | - |
| 1788553515 | 27.78° C | 58% | 1010.2 hPa | 0 mm | - | - | - |
| 1788553215 | 27.78° C | 57% | 1010.4 hPa | 0 mm | - | - | - |
| 1788552915 | 27.78° C | 56% | 1010.4 hPa | 0 mm | - | - | - |
| 1788552615 | 28.33° C | 55% | 1010.4 hPa | 0 mm | - | - | - |
| 1788552315 | 28.33° C | 55% | 1010.4 hPa | 0 mm | - | - | - |
| 1788552015 | 28.89° C | 54% | 1010.4 hPa | 0 mm | - | - | - |
| 1788551715 | 28.33° C | 55% | 1010.5 hPa | 0 mm | - | - | - |
| 1788551415 | 28.33° C | 53% | 1010.5 hPa | 0 mm | - | - | - |
| 1788551115 | 28.33° C | 54% | 1010.5 hPa | 0 mm | - | - | - |
| 1788550815 | 28.33° C | 54% | 1010.5 hPa | 0 mm | - | - | - |
| 1788550515 | 28.33° C | 55% | 1010.7 hPa | 0 mm | - | - | - |
* Rain latest hour (hover to see other rain measurements)
** Current wind speed in m/s (hover to see current wind gust speed)